Index of /20260430/WXO-DD/model_gdps/15km/12/186
Name Last modified Size Description
Parent Directory -
20260430T12Z_MSC_GDPS_AbsoluteVorticity_IsbL-0200_LatLon0.15_PT186H.grib2 2026-04-30 16:31 1.2M
20260430T12Z_MSC_GDPS_AbsoluteVorticity_IsbL-0250_LatLon0.15_PT186H.grib2 2026-04-30 16:31 1.3M
20260430T12Z_MSC_GDPS_AbsoluteVorticity_IsbL-0500_LatLon0.15_PT186H.grib2 2026-04-30 16:31 1.2M
20260430T12Z_MSC_GDPS_AbsoluteVorticity_IsbL-0700_LatLon0.15_PT186H.grib2 2026-04-30 16:31 1.3M
20260430T12Z_MSC_GDPS_AbsoluteVorticity_IsbL-0850_LatLon0.15_PT186H.grib2 2026-04-30 16:31 1.6M
20260430T12Z_MSC_GDPS_AirTemp-Max_AGL-2m_LatLon0.15_PT186H.grib2 2026-04-30 16:31 744K
20260430T12Z_MSC_GDPS_AirTemp-Min_AGL-2m_LatLon0.15_PT186H.grib2 2026-04-30 16:31 905K
20260430T12Z_MSC_GDPS_AirTemp_AGL-120m_LatLon0.15_PT186H.grib2 2026-04-30 16:31 903K
20260430T12Z_MSC_GDPS_AirTemp_AGL-2m_LatLon0.15_PT186H.grib2 2026-04-30 16:31 1.0M
20260430T12Z_MSC_GDPS_AirTemp_AGL-40m_LatLon0.15_PT186H.grib2 2026-04-30 16:31 923K
20260430T12Z_MSC_GDPS_AirTemp_AGL-80m_LatLon0.15_PT186H.grib2 2026-04-30 16:31 911K
20260430T12Z_MSC_GDPS_AirTemp_IsbL-0001_LatLon0.15_PT186H.grib2 2026-04-30 16:31 666K
20260430T12Z_MSC_GDPS_AirTemp_IsbL-0005_LatLon0.15_PT186H.grib2 2026-04-30 16:31 691K
20260430T12Z_MSC_GDPS_AirTemp_IsbL-0010_LatLon0.15_PT186H.grib2 2026-04-30 16:31 763K
20260430T12Z_MSC_GDPS_AirTemp_IsbL-0020_LatLon0.15_PT186H.grib2 2026-04-30 16:31 785K
20260430T12Z_MSC_GDPS_AirTemp_IsbL-0030_LatLon0.15_PT186H.grib2 2026-04-30 16:31 833K
20260430T12Z_MSC_GDPS_AirTemp_IsbL-0050_LatLon0.15_PT186H.grib2 2026-04-30 16:31 795K
20260430T12Z_MSC_GDPS_AirTemp_IsbL-0100_LatLon0.15_PT186H.grib2 2026-04-30 16:31 959K
20260430T12Z_MSC_GDPS_AirTemp_IsbL-0150_LatLon0.15_PT186H.grib2 2026-04-30 16:31 1.0M
20260430T12Z_MSC_GDPS_AirTemp_IsbL-0175_LatLon0.15_PT186H.grib2 2026-04-30 16:31 949K
20260430T12Z_MSC_GDPS_AirTemp_IsbL-0200_LatLon0.15_PT186H.grib2 2026-04-30 16:31 964K
20260430T12Z_MSC_GDPS_AirTemp_IsbL-0225_LatLon0.15_PT186H.grib2 2026-04-30 16:31 966K
20260430T12Z_MSC_GDPS_AirTemp_IsbL-0250_LatLon0.15_PT186H.grib2 2026-04-30 16:31 1.0M
20260430T12Z_MSC_GDPS_AirTemp_IsbL-0275_LatLon0.15_PT186H.grib2 2026-04-30 16:31 1.0M
20260430T12Z_MSC_GDPS_AirTemp_IsbL-0300_LatLon0.15_PT186H.grib2 2026-04-30 16:31 939K
20260430T12Z_MSC_GDPS_AirTemp_IsbL-0350_LatLon0.15_PT186H.grib2 2026-04-30 16:31 925K
20260430T12Z_MSC_GDPS_AirTemp_IsbL-0400_LatLon0.15_PT186H.grib2 2026-04-30 16:31 938K
20260430T12Z_MSC_GDPS_AirTemp_IsbL-0450_LatLon0.15_PT186H.grib2 2026-04-30 16:31 963K
20260430T12Z_MSC_GDPS_AirTemp_IsbL-0500_LatLon0.15_PT186H.grib2 2026-04-30 16:31 1.0M
20260430T12Z_MSC_GDPS_AirTemp_IsbL-0550_LatLon0.15_PT186H.grib2 2026-04-30 16:31 799K
20260430T12Z_MSC_GDPS_AirTemp_IsbL-0600_LatLon0.15_PT186H.grib2 2026-04-30 16:31 891K
20260430T12Z_MSC_GDPS_AirTemp_IsbL-0650_LatLon0.15_PT186H.grib2 2026-04-30 16:31 916K
20260430T12Z_MSC_GDPS_AirTemp_IsbL-0700_LatLon0.15_PT186H.grib2 2026-04-30 16:31 950K
20260430T12Z_MSC_GDPS_AirTemp_IsbL-0750_LatLon0.15_PT186H.grib2 2026-04-30 16:31 1.0M
20260430T12Z_MSC_GDPS_AirTemp_IsbL-0800_LatLon0.15_PT186H.grib2 2026-04-30 16:31 1.1M
20260430T12Z_MSC_GDPS_AirTemp_IsbL-0850_LatLon0.15_PT186H.grib2 2026-04-30 16:31 1.1M
20260430T12Z_MSC_GDPS_AirTemp_IsbL-0875_LatLon0.15_PT186H.grib2 2026-04-30 16:31 1.2M
20260430T12Z_MSC_GDPS_AirTemp_IsbL-0900_LatLon0.15_PT186H.grib2 2026-04-30 16:31 1.2M
20260430T12Z_MSC_GDPS_AirTemp_IsbL-0925_LatLon0.15_PT186H.grib2 2026-04-30 16:31 1.1M
20260430T12Z_MSC_GDPS_AirTemp_IsbL-0950_LatLon0.15_PT186H.grib2 2026-04-30 16:31 1.1M
20260430T12Z_MSC_GDPS_AirTemp_IsbL-0970_LatLon0.15_PT186H.grib2 2026-04-30 16:31 1.1M
20260430T12Z_MSC_GDPS_AirTemp_IsbL-0985_LatLon0.15_PT186H.grib2 2026-04-30 16:31 1.1M
20260430T12Z_MSC_GDPS_AirTemp_IsbL-1000_LatLon0.15_PT186H.grib2 2026-04-30 16:31 1.1M
20260430T12Z_MSC_GDPS_AirTemp_IsbL-1015_LatLon0.15_PT186H.grib2 2026-04-30 16:31 1.1M
20260430T12Z_MSC_GDPS_Albedo_Sfc_LatLon0.15_PT186H.grib2 2026-04-30 16:31 244K
20260430T12Z_MSC_GDPS_CAPE_Sfc_LatLon0.15_PT186H.grib2 2026-04-30 16:31 3.8M
20260430T12Z_MSC_GDPS_CIN_Sfc_LatLon0.15_PT186H.grib2 2026-04-30 16:31 2.9M
20260430T12Z_MSC_GDPS_CloudWater_EAtm_LatLon0.15_PT186H.grib2 2026-04-30 16:31 537K
20260430T12Z_MSC_GDPS_ConvectivePrecip-Accum_Sfc_LatLon0.15_PT186H.grib2 2026-04-30 16:31 3.8M
20260430T12Z_MSC_GDPS_DewPointDepression_AGL-2m_LatLon0.15_PT186H.grib2 2026-04-30 16:31 767K
20260430T12Z_MSC_GDPS_DewPointDepression_IsbL-0010_LatLon0.15_PT186H.grib2 2026-04-30 16:31 73K
20260430T12Z_MSC_GDPS_DewPointDepression_IsbL-0020_LatLon0.15_PT186H.grib2 2026-04-30 16:31 67K
20260430T12Z_MSC_GDPS_DewPointDepression_IsbL-0030_LatLon0.15_PT186H.grib2 2026-04-30 16:31 86K
20260430T12Z_MSC_GDPS_DewPointDepression_IsbL-0050_LatLon0.15_PT186H.grib2 2026-04-30 16:31 376K
20260430T12Z_MSC_GDPS_DewPointDepression_IsbL-0100_LatLon0.15_PT186H.grib2 2026-04-30 16:31 393K
20260430T12Z_MSC_GDPS_DewPointDepression_IsbL-0150_LatLon0.15_PT186H.grib2 2026-04-30 16:31 487K
20260430T12Z_MSC_GDPS_DewPointDepression_IsbL-0175_LatLon0.15_PT186H.grib2 2026-04-30 16:31 581K
20260430T12Z_MSC_GDPS_DewPointDepression_IsbL-0200_LatLon0.15_PT186H.grib2 2026-04-30 16:31 683K
20260430T12Z_MSC_GDPS_DewPointDepression_IsbL-0225_LatLon0.15_PT186H.grib2 2026-04-30 16:31 762K
20260430T12Z_MSC_GDPS_DewPointDepression_IsbL-0250_LatLon0.15_PT186H.grib2 2026-04-30 16:31 862K
20260430T12Z_MSC_GDPS_DewPointDepression_IsbL-0275_LatLon0.15_PT186H.grib2 2026-04-30 16:31 890K
20260430T12Z_MSC_GDPS_DewPointDepression_IsbL-0300_LatLon0.15_PT186H.grib2 2026-04-30 16:31 931K
20260430T12Z_MSC_GDPS_DewPointDepression_IsbL-0350_LatLon0.15_PT186H.grib2 2026-04-30 16:31 961K
20260430T12Z_MSC_GDPS_DewPointDepression_IsbL-0400_LatLon0.15_PT186H.grib2 2026-04-30 16:31 1.0M
20260430T12Z_MSC_GDPS_DewPointDepression_IsbL-0450_LatLon0.15_PT186H.grib2 2026-04-30 16:31 1.0M
20260430T12Z_MSC_GDPS_DewPointDepression_IsbL-0500_LatLon0.15_PT186H.grib2 2026-04-30 16:31 1.0M
20260430T12Z_MSC_GDPS_DewPointDepression_IsbL-0550_LatLon0.15_PT186H.grib2 2026-04-30 16:31 1.0M
20260430T12Z_MSC_GDPS_DewPointDepression_IsbL-0600_LatLon0.15_PT186H.grib2 2026-04-30 16:31 1.1M
20260430T12Z_MSC_GDPS_DewPointDepression_IsbL-0650_LatLon0.15_PT186H.grib2 2026-04-30 16:31 1.1M
20260430T12Z_MSC_GDPS_DewPointDepression_IsbL-0700_LatLon0.15_PT186H.grib2 2026-04-30 16:31 1.1M
20260430T12Z_MSC_GDPS_DewPointDepression_IsbL-0750_LatLon0.15_PT186H.grib2 2026-04-30 16:31 1.1M
20260430T12Z_MSC_GDPS_DewPointDepression_IsbL-0800_LatLon0.15_PT186H.grib2 2026-04-30 16:31 1.2M
20260430T12Z_MSC_GDPS_DewPointDepression_IsbL-0850_LatLon0.15_PT186H.grib2 2026-04-30 16:31 1.2M
20260430T12Z_MSC_GDPS_DewPointDepression_IsbL-0875_LatLon0.15_PT186H.grib2 2026-04-30 16:31 1.1M
20260430T12Z_MSC_GDPS_DewPointDepression_IsbL-0900_LatLon0.15_PT186H.grib2 2026-04-30 16:31 1.1M
20260430T12Z_MSC_GDPS_DewPointDepression_IsbL-0925_LatLon0.15_PT186H.grib2 2026-04-30 16:31 1.0M
20260430T12Z_MSC_GDPS_DewPointDepression_IsbL-0950_LatLon0.15_PT186H.grib2 2026-04-30 16:31 1.0M
20260430T12Z_MSC_GDPS_DewPointDepression_IsbL-0970_LatLon0.15_PT186H.grib2 2026-04-30 16:31 1.0M
20260430T12Z_MSC_GDPS_DewPointDepression_IsbL-0985_LatLon0.15_PT186H.grib2 2026-04-30 16:31 1.0M
20260430T12Z_MSC_GDPS_DewPointDepression_IsbL-1000_LatLon0.15_PT186H.grib2 2026-04-30 16:31 1.0M
20260430T12Z_MSC_GDPS_DewPointDepression_IsbL-1015_LatLon0.15_PT186H.grib2 2026-04-30 16:31 921K
20260430T12Z_MSC_GDPS_DewPoint_AGL-2m_LatLon0.15_PT186H.grib2 2026-04-30 16:31 608K
20260430T12Z_MSC_GDPS_DownwardLongwaveRadiationFlux-Accum_Sfc_LatLon0.15_PT186H.grib2 2026-04-30 16:31 658K
20260430T12Z_MSC_GDPS_DownwardShortwaveRadiationFlux-Accum_NTAtm_LatLon0.15_PT186H.grib2 2026-04-30 16:31 236K
20260430T12Z_MSC_GDPS_DownwardShortwaveRadiationFlux-Accum_Sfc_LatLon0.15_PT186H.grib2 2026-04-30 16:31 844K
20260430T12Z_MSC_GDPS_FreezingRain-Accum12h_Sfc_LatLon0.15_PT186H.grib2 2026-04-30 16:31 87K
20260430T12Z_MSC_GDPS_FreezingRain-Accum24h_Sfc_LatLon0.15_PT186H.grib2 2026-04-30 16:31 141K
20260430T12Z_MSC_GDPS_FreezingRain-Accum6h_Sfc_LatLon0.15_PT186H.grib2 2026-04-30 16:31 53K
20260430T12Z_MSC_GDPS_FreezingRain-Accum_Sfc_LatLon0.15_PT186H.grib2 2026-04-30 16:31 500K
20260430T12Z_MSC_GDPS_GeopotentialHeight_IsbL-0001_LatLon0.15_PT186H.grib2 2026-04-30 16:31 435K
20260430T12Z_MSC_GDPS_GeopotentialHeight_IsbL-0005_LatLon0.15_PT186H.grib2 2026-04-30 16:31 488K
20260430T12Z_MSC_GDPS_GeopotentialHeight_IsbL-0010_LatLon0.15_PT186H.grib2 2026-04-30 16:31 475K
20260430T12Z_MSC_GDPS_GeopotentialHeight_IsbL-0020_LatLon0.15_PT186H.grib2 2026-04-30 16:31 411K
20260430T12Z_MSC_GDPS_GeopotentialHeight_IsbL-0030_LatLon0.15_PT186H.grib2 2026-04-30 16:31 413K
20260430T12Z_MSC_GDPS_GeopotentialHeight_IsbL-0050_LatLon0.15_PT186H.grib2 2026-04-30 16:31 561K
20260430T12Z_MSC_GDPS_GeopotentialHeight_IsbL-0100_LatLon0.15_PT186H.grib2 2026-04-30 16:31 600K
20260430T12Z_MSC_GDPS_GeopotentialHeight_IsbL-0150_LatLon0.15_PT186H.grib2 2026-04-30 16:31 619K
20260430T12Z_MSC_GDPS_GeopotentialHeight_IsbL-0175_LatLon0.15_PT186H.grib2 2026-04-30 16:31 623K
20260430T12Z_MSC_GDPS_GeopotentialHeight_IsbL-0200_LatLon0.15_PT186H.grib2 2026-04-30 16:31 631K
20260430T12Z_MSC_GDPS_GeopotentialHeight_IsbL-0225_LatLon0.15_PT186H.grib2 2026-04-30 16:31 638K
20260430T12Z_MSC_GDPS_GeopotentialHeight_IsbL-0250_LatLon0.15_PT186H.grib2 2026-04-30 16:31 641K
20260430T12Z_MSC_GDPS_GeopotentialHeight_IsbL-0275_LatLon0.15_PT186H.grib2 2026-04-30 16:31 639K
20260430T12Z_MSC_GDPS_GeopotentialHeight_IsbL-0300_LatLon0.15_PT186H.grib2 2026-04-30 16:31 637K
20260430T12Z_MSC_GDPS_GeopotentialHeight_IsbL-0350_LatLon0.15_PT186H.grib2 2026-04-30 16:31 625K
20260430T12Z_MSC_GDPS_GeopotentialHeight_IsbL-0400_LatLon0.15_PT186H.grib2 2026-04-30 16:31 617K
20260430T12Z_MSC_GDPS_GeopotentialHeight_IsbL-0450_LatLon0.15_PT186H.grib2 2026-04-30 16:31 608K
20260430T12Z_MSC_GDPS_GeopotentialHeight_IsbL-0500_LatLon0.15_PT186H.grib2 2026-04-30 16:31 528K
20260430T12Z_MSC_GDPS_GeopotentialHeight_IsbL-0550_LatLon0.15_PT186H.grib2 2026-04-30 16:31 524K
20260430T12Z_MSC_GDPS_GeopotentialHeight_IsbL-0600_LatLon0.15_PT186H.grib2 2026-04-30 16:31 519K
20260430T12Z_MSC_GDPS_GeopotentialHeight_IsbL-0650_LatLon0.15_PT186H.grib2 2026-04-30 16:31 687K
20260430T12Z_MSC_GDPS_GeopotentialHeight_IsbL-0700_LatLon0.15_PT186H.grib2 2026-04-30 16:31 690K
20260430T12Z_MSC_GDPS_GeopotentialHeight_IsbL-0750_LatLon0.15_PT186H.grib2 2026-04-30 16:31 691K
20260430T12Z_MSC_GDPS_GeopotentialHeight_IsbL-0800_LatLon0.15_PT186H.grib2 2026-04-30 16:31 707K
20260430T12Z_MSC_GDPS_GeopotentialHeight_IsbL-0850_LatLon0.15_PT186H.grib2 2026-04-30 16:31 714K
20260430T12Z_MSC_GDPS_GeopotentialHeight_IsbL-0875_LatLon0.15_PT186H.grib2 2026-04-30 16:31 721K
20260430T12Z_MSC_GDPS_GeopotentialHeight_IsbL-0900_LatLon0.15_PT186H.grib2 2026-04-30 16:31 726K
20260430T12Z_MSC_GDPS_GeopotentialHeight_IsbL-0925_LatLon0.15_PT186H.grib2 2026-04-30 16:31 735K
20260430T12Z_MSC_GDPS_GeopotentialHeight_IsbL-0950_LatLon0.15_PT186H.grib2 2026-04-30 16:31 741K
20260430T12Z_MSC_GDPS_GeopotentialHeight_IsbL-0970_LatLon0.15_PT186H.grib2 2026-04-30 16:31 752K
20260430T12Z_MSC_GDPS_GeopotentialHeight_IsbL-0985_LatLon0.15_PT186H.grib2 2026-04-30 16:31 767K
20260430T12Z_MSC_GDPS_GeopotentialHeight_IsbL-1000_LatLon0.15_PT186H.grib2 2026-04-30 16:31 787K
20260430T12Z_MSC_GDPS_GeopotentialHeight_IsbL-1015_LatLon0.15_PT186H.grib2 2026-04-30 16:31 810K
20260430T12Z_MSC_GDPS_Humidex_Sfc_LatLon0.15_PT186H.grib2 2026-04-30 16:31 5.3M
20260430T12Z_MSC_GDPS_IcePellets-Accum12h_Sfc_LatLon0.15_PT186H.grib2 2026-04-30 16:31 7.0K
20260430T12Z_MSC_GDPS_IcePellets-Accum24h_Sfc_LatLon0.15_PT186H.grib2 2026-04-30 16:31 11K
20260430T12Z_MSC_GDPS_IcePellets-Accum6h_Sfc_LatLon0.15_PT186H.grib2 2026-04-30 16:31 4.3K
20260430T12Z_MSC_GDPS_IcePellets-Accum_Sfc_LatLon0.15_PT186H.grib2 2026-04-30 16:31 151K
20260430T12Z_MSC_GDPS_KIndex_Sfc_LatLon0.15_PT186H.grib2 2026-04-30 16:31 6.5M
20260430T12Z_MSC_GDPS_LatentHeatNetFlux_Sfc_LatLon0.15_PT186H.grib2 2026-04-30 16:31 545K
20260430T12Z_MSC_GDPS_LiftedIndex-MU-VT_IsbL-0500_LatLon0.15_PT186H.grib2 2026-04-30 16:31 5.4M
20260430T12Z_MSC_GDPS_NetLongwaveRadiationFlux-Accum_Sfc_LatLon0.15_PT186H.grib2 2026-04-30 16:31 881K
20260430T12Z_MSC_GDPS_NetShortwaveRadiationFlux-Accum_Sfc_LatLon0.15_PT186H.grib2 2026-04-30 16:31 842K
20260430T12Z_MSC_GDPS_O3MixingRatio_Sfc_LatLon0.15_PT186H.grib2 2026-04-30 16:46 1.9M
20260430T12Z_MSC_GDPS_O3_EAtm_LatLon0.15_PT186H.grib2 2026-04-30 16:46 2.4M
20260430T12Z_MSC_GDPS_PlanetaryBoundaryLayerHeight_Sfc_LatLon0.15_PT186H.grib2 2026-04-30 16:31 2.5M
20260430T12Z_MSC_GDPS_Precip-Accum12h_Sfc_LatLon0.15_PT186H.grib2 2026-04-30 16:31 4.0M
20260430T12Z_MSC_GDPS_Precip-Accum24h_Sfc_LatLon0.15_PT186H.grib2 2026-04-30 16:31 4.6M
20260430T12Z_MSC_GDPS_Precip-Accum6h_Sfc_LatLon0.15_PT186H.grib2 2026-04-30 16:31 3.8M
20260430T12Z_MSC_GDPS_Precip-Accum_Sfc_LatLon0.15_PT186H.grib2 2026-04-30 16:31 5.4M
20260430T12Z_MSC_GDPS_PrecipRate_Sfc_LatLon0.15_PT186H.grib2 2026-04-30 16:31 3.1M
20260430T12Z_MSC_GDPS_PrecipType-Instant_Sfc_LatLon0.15_PT186H.grib2 2026-04-30 16:31 1.6M
20260430T12Z_MSC_GDPS_Pressure_MSL_LatLon0.15_PT186H.grib2 2026-04-30 16:31 718K
20260430T12Z_MSC_GDPS_Pressure_PVU-1.5_LatLon0.15_PT186H.grib2 2026-04-30 16:31 5.8M
20260430T12Z_MSC_GDPS_Pressure_PVU-1_LatLon0.15_PT186H.grib2 2026-04-30 16:31 6.0M
20260430T12Z_MSC_GDPS_Pressure_PVU-2_LatLon0.15_PT186H.grib2 2026-04-30 16:31 5.6M
20260430T12Z_MSC_GDPS_Pressure_Sfc_LatLon0.15_PT186H.grib2 2026-04-30 16:31 1.1M
20260430T12Z_MSC_GDPS_RadiativeTemp_Sfc_LatLon0.15_PT186H.grib2 2026-04-30 16:31 672K
20260430T12Z_MSC_GDPS_Rain-Accum12h_Sfc_LatLon0.15_PT186H.grib2 2026-04-30 16:31 2.8M
20260430T12Z_MSC_GDPS_Rain-Accum24h_Sfc_LatLon0.15_PT186H.grib2 2026-04-30 16:31 3.2M
20260430T12Z_MSC_GDPS_Rain-Accum6h_Sfc_LatLon0.15_PT186H.grib2 2026-04-30 16:31 2.5M
20260430T12Z_MSC_GDPS_Rain-Accum_Sfc_LatLon0.15_PT186H.grib2 2026-04-30 16:31 4.2M
20260430T12Z_MSC_GDPS_RelativeHumidity_AGL-2m_LatLon0.15_PT186H.grib2 2026-04-30 16:31 1.0M
20260430T12Z_MSC_GDPS_RelativeHumidity_IsbL-0010_LatLon0.15_PT186H.grib2 2026-04-30 16:31 194K
20260430T12Z_MSC_GDPS_RelativeHumidity_IsbL-0020_LatLon0.15_PT186H.grib2 2026-04-30 16:31 156K
20260430T12Z_MSC_GDPS_RelativeHumidity_IsbL-0030_LatLon0.15_PT186H.grib2 2026-04-30 16:31 181K
20260430T12Z_MSC_GDPS_RelativeHumidity_IsbL-0050_LatLon0.15_PT186H.grib2 2026-04-30 16:31 330K
20260430T12Z_MSC_GDPS_RelativeHumidity_IsbL-0100_LatLon0.15_PT186H.grib2 2026-04-30 16:31 491K
20260430T12Z_MSC_GDPS_RelativeHumidity_IsbL-0150_LatLon0.15_PT186H.grib2 2026-04-30 16:31 677K
20260430T12Z_MSC_GDPS_RelativeHumidity_IsbL-0175_LatLon0.15_PT186H.grib2 2026-04-30 16:31 794K
20260430T12Z_MSC_GDPS_RelativeHumidity_IsbL-0200_LatLon0.15_PT186H.grib2 2026-04-30 16:31 706K
20260430T12Z_MSC_GDPS_RelativeHumidity_IsbL-0225_LatLon0.15_PT186H.grib2 2026-04-30 16:31 786K
20260430T12Z_MSC_GDPS_RelativeHumidity_IsbL-0250_LatLon0.15_PT186H.grib2 2026-04-30 16:31 867K
20260430T12Z_MSC_GDPS_RelativeHumidity_IsbL-0275_LatLon0.15_PT186H.grib2 2026-04-30 16:31 892K
20260430T12Z_MSC_GDPS_RelativeHumidity_IsbL-0300_LatLon0.15_PT186H.grib2 2026-04-30 16:31 934K
20260430T12Z_MSC_GDPS_RelativeHumidity_IsbL-0350_LatLon0.15_PT186H.grib2 2026-04-30 16:31 952K
20260430T12Z_MSC_GDPS_RelativeHumidity_IsbL-0400_LatLon0.15_PT186H.grib2 2026-04-30 16:31 1.0M
20260430T12Z_MSC_GDPS_RelativeHumidity_IsbL-0450_LatLon0.15_PT186H.grib2 2026-04-30 16:31 1.0M
20260430T12Z_MSC_GDPS_RelativeHumidity_IsbL-0500_LatLon0.15_PT186H.grib2 2026-04-30 16:31 1.0M
20260430T12Z_MSC_GDPS_RelativeHumidity_IsbL-0550_LatLon0.15_PT186H.grib2 2026-04-30 16:31 1.0M
20260430T12Z_MSC_GDPS_RelativeHumidity_IsbL-0600_LatLon0.15_PT186H.grib2 2026-04-30 16:31 1.0M
20260430T12Z_MSC_GDPS_RelativeHumidity_IsbL-0650_LatLon0.15_PT186H.grib2 2026-04-30 16:31 1.1M
20260430T12Z_MSC_GDPS_RelativeHumidity_IsbL-0700_LatLon0.15_PT186H.grib2 2026-04-30 16:31 1.1M
20260430T12Z_MSC_GDPS_RelativeHumidity_IsbL-0750_LatLon0.15_PT186H.grib2 2026-04-30 16:31 1.1M
20260430T12Z_MSC_GDPS_RelativeHumidity_IsbL-0800_LatLon0.15_PT186H.grib2 2026-04-30 16:31 1.2M
20260430T12Z_MSC_GDPS_RelativeHumidity_IsbL-0850_LatLon0.15_PT186H.grib2 2026-04-30 16:31 1.3M
20260430T12Z_MSC_GDPS_RelativeHumidity_IsbL-0875_LatLon0.15_PT186H.grib2 2026-04-30 16:31 1.3M
20260430T12Z_MSC_GDPS_RelativeHumidity_IsbL-0900_LatLon0.15_PT186H.grib2 2026-04-30 16:31 1.3M
20260430T12Z_MSC_GDPS_RelativeHumidity_IsbL-0925_LatLon0.15_PT186H.grib2 2026-04-30 16:31 1.2M
20260430T12Z_MSC_GDPS_RelativeHumidity_IsbL-0950_LatLon0.15_PT186H.grib2 2026-04-30 16:31 1.2M
20260430T12Z_MSC_GDPS_RelativeHumidity_IsbL-0970_LatLon0.15_PT186H.grib2 2026-04-30 16:31 1.2M
20260430T12Z_MSC_GDPS_RelativeHumidity_IsbL-0985_LatLon0.15_PT186H.grib2 2026-04-30 16:31 1.1M
20260430T12Z_MSC_GDPS_RelativeHumidity_IsbL-1000_LatLon0.15_PT186H.grib2 2026-04-30 16:31 1.1M
20260430T12Z_MSC_GDPS_RelativeHumidity_IsbL-1015_LatLon0.15_PT186H.grib2 2026-04-30 16:31 1.0M
20260430T12Z_MSC_GDPS_RelativeVorticity_IsbL-0200_LatLon0.15_PT186H.grib2 2026-04-30 16:31 1.5M
20260430T12Z_MSC_GDPS_RelativeVorticity_IsbL-0250_LatLon0.15_PT186H.grib2 2026-04-30 16:31 1.3M
20260430T12Z_MSC_GDPS_RelativeVorticity_IsbL-0500_LatLon0.15_PT186H.grib2 2026-04-30 16:31 1.2M
20260430T12Z_MSC_GDPS_RelativeVorticity_IsbL-0700_LatLon0.15_PT186H.grib2 2026-04-30 16:31 1.3M
20260430T12Z_MSC_GDPS_RelativeVorticity_IsbL-0850_LatLon0.15_PT186H.grib2 2026-04-30 16:31 1.6M
20260430T12Z_MSC_GDPS_Runoff-Accum_Sfc_LatLon0.15_PT186H.grib2 2026-04-30 16:31 127K
20260430T12Z_MSC_GDPS_SensibleHeatNetFlux_Sfc_LatLon0.15_PT186H.grib2 2026-04-30 16:31 487K
20260430T12Z_MSC_GDPS_ShowalterIndex_IsbL-0500_LatLon0.15_PT186H.grib2 2026-04-30 16:31 6.2M
20260430T12Z_MSC_GDPS_Snow-Accum12h_Sfc_LatLon0.15_PT186H.grib2 2026-04-30 16:31 1.6M
20260430T12Z_MSC_GDPS_Snow-Accum24h_Sfc_LatLon0.15_PT186H.grib2 2026-04-30 16:31 1.7M
20260430T12Z_MSC_GDPS_Snow-Accum6h_Sfc_LatLon0.15_PT186H.grib2 2026-04-30 16:31 1.5M
20260430T12Z_MSC_GDPS_Snow-Accum_Sfc_LatLon0.15_PT186H.grib2 2026-04-30 16:31 2.1M
20260430T12Z_MSC_GDPS_SnowDensity_Sfc_LatLon0.15_PT186H.grib2 2026-04-30 16:31 259K
20260430T12Z_MSC_GDPS_SnowDepth_Sfc_LatLon0.15_PT186H.grib2 2026-04-30 16:31 1.7M
20260430T12Z_MSC_GDPS_SoilTemp_DBS-0to10cm_LatLon0.15_PT186H.grib2 2026-04-30 16:31 514K
20260430T12Z_MSC_GDPS_SoilTemp_Sfc_LatLon0.15_PT186H.grib2 2026-04-30 16:31 583K
20260430T12Z_MSC_GDPS_SoilVolumetricIceContent_Sfc_LatLon0.15_PT186H.grib2 2026-04-30 16:31 184K
20260430T12Z_MSC_GDPS_SoilVolumetricWaterContent_DBS-0to10cm_LatLon0.15_PT186H.grib2 2026-04-30 16:31 595K
20260430T12Z_MSC_GDPS_SoilVolumetricWaterContent_DBS-0to1cm_LatLon0.15_PT186H.grib2 2026-04-30 16:31 651K
20260430T12Z_MSC_GDPS_SpecificHumidity_AGL-120m_LatLon0.15_PT186H.grib2 2026-04-30 16:31 1.1M
20260430T12Z_MSC_GDPS_SpecificHumidity_AGL-2m_LatLon0.15_PT186H.grib2 2026-04-30 16:31 1.2M
20260430T12Z_MSC_GDPS_SpecificHumidity_AGL-40m_LatLon0.15_PT186H.grib2 2026-04-30 16:31 1.1M
20260430T12Z_MSC_GDPS_SpecificHumidity_AGL-80m_LatLon0.15_PT186H.grib2 2026-04-30 16:31 1.1M
20260430T12Z_MSC_GDPS_SpecificHumidity_IsbL-0001_LatLon0.15_PT186H.grib2 2026-04-30 16:31 1.2M
20260430T12Z_MSC_GDPS_SpecificHumidity_IsbL-0005_LatLon0.15_PT186H.grib2 2026-04-30 16:31 1.0M
20260430T12Z_MSC_GDPS_SpecificHumidity_IsbL-0010_LatLon0.15_PT186H.grib2 2026-04-30 16:31 1.2M
20260430T12Z_MSC_GDPS_SpecificHumidity_IsbL-0020_LatLon0.15_PT186H.grib2 2026-04-30 16:31 1.2M
20260430T12Z_MSC_GDPS_SpecificHumidity_IsbL-0030_LatLon0.15_PT186H.grib2 2026-04-30 16:31 1.4M
20260430T12Z_MSC_GDPS_SpecificHumidity_IsbL-0050_LatLon0.15_PT186H.grib2 2026-04-30 16:31 1.5M
20260430T12Z_MSC_GDPS_SpecificHumidity_IsbL-0100_LatLon0.15_PT186H.grib2 2026-04-30 16:31 1.2M
20260430T12Z_MSC_GDPS_SpecificHumidity_IsbL-0150_LatLon0.15_PT186H.grib2 2026-04-30 16:31 1.3M
20260430T12Z_MSC_GDPS_SpecificHumidity_IsbL-0175_LatLon0.15_PT186H.grib2 2026-04-30 16:31 1.3M
20260430T12Z_MSC_GDPS_SpecificHumidity_IsbL-0200_LatLon0.15_PT186H.grib2 2026-04-30 16:31 1.3M
20260430T12Z_MSC_GDPS_SpecificHumidity_IsbL-0225_LatLon0.15_PT186H.grib2 2026-04-30 16:31 1.3M
20260430T12Z_MSC_GDPS_SpecificHumidity_IsbL-0250_LatLon0.15_PT186H.grib2 2026-04-30 16:31 1.2M
20260430T12Z_MSC_GDPS_SpecificHumidity_IsbL-0275_LatLon0.15_PT186H.grib2 2026-04-30 16:31 1.3M
20260430T12Z_MSC_GDPS_SpecificHumidity_IsbL-0300_LatLon0.15_PT186H.grib2 2026-04-30 16:31 1.2M
20260430T12Z_MSC_GDPS_SpecificHumidity_IsbL-0350_LatLon0.15_PT186H.grib2 2026-04-30 16:31 1.2M
20260430T12Z_MSC_GDPS_SpecificHumidity_IsbL-0400_LatLon0.15_PT186H.grib2 2026-04-30 16:31 1.5M
20260430T12Z_MSC_GDPS_SpecificHumidity_IsbL-0450_LatLon0.15_PT186H.grib2 2026-04-30 16:31 1.3M
20260430T12Z_MSC_GDPS_SpecificHumidity_IsbL-0500_LatLon0.15_PT186H.grib2 2026-04-30 16:31 1.4M
20260430T12Z_MSC_GDPS_SpecificHumidity_IsbL-0550_LatLon0.15_PT186H.grib2 2026-04-30 16:31 1.6M
20260430T12Z_MSC_GDPS_SpecificHumidity_IsbL-0600_LatLon0.15_PT186H.grib2 2026-04-30 16:31 1.4M
20260430T12Z_MSC_GDPS_SpecificHumidity_IsbL-0650_LatLon0.15_PT186H.grib2 2026-04-30 16:31 1.5M
20260430T12Z_MSC_GDPS_SpecificHumidity_IsbL-0700_LatLon0.15_PT186H.grib2 2026-04-30 16:31 1.6M
20260430T12Z_MSC_GDPS_SpecificHumidity_IsbL-0750_LatLon0.15_PT186H.grib2 2026-04-30 16:31 1.7M
20260430T12Z_MSC_GDPS_SpecificHumidity_IsbL-0800_LatLon0.15_PT186H.grib2 2026-04-30 16:31 1.9M
20260430T12Z_MSC_GDPS_SpecificHumidity_IsbL-0850_LatLon0.15_PT186H.grib2 2026-04-30 16:31 2.0M
20260430T12Z_MSC_GDPS_SpecificHumidity_IsbL-0875_LatLon0.15_PT186H.grib2 2026-04-30 16:31 2.0M
20260430T12Z_MSC_GDPS_SpecificHumidity_IsbL-0900_LatLon0.15_PT186H.grib2 2026-04-30 16:31 1.6M
20260430T12Z_MSC_GDPS_SpecificHumidity_IsbL-0925_LatLon0.15_PT186H.grib2 2026-04-30 16:31 1.6M
20260430T12Z_MSC_GDPS_SpecificHumidity_IsbL-0950_LatLon0.15_PT186H.grib2 2026-04-30 16:31 1.6M
20260430T12Z_MSC_GDPS_SpecificHumidity_IsbL-0970_LatLon0.15_PT186H.grib2 2026-04-30 16:31 1.6M
20260430T12Z_MSC_GDPS_SpecificHumidity_IsbL-0985_LatLon0.15_PT186H.grib2 2026-04-30 16:31 1.5M
20260430T12Z_MSC_GDPS_SpecificHumidity_IsbL-1000_LatLon0.15_PT186H.grib2 2026-04-30 16:31 1.5M
20260430T12Z_MSC_GDPS_SpecificHumidity_IsbL-1015_LatLon0.15_PT186H.grib2 2026-04-30 16:31 1.5M
20260430T12Z_MSC_GDPS_SpecificHumidity_Sfc_LatLon0.15_PT186H.grib2 2026-04-30 16:31 681K
20260430T12Z_MSC_GDPS_Thickness_IsbL-0850to0700_LatLon0.15_PT186H.grib2 2026-04-30 16:31 467K
20260430T12Z_MSC_GDPS_Thickness_IsbL-1000to0500_LatLon0.15_PT186H.grib2 2026-04-30 16:31 371K
20260430T12Z_MSC_GDPS_Thickness_IsbL-1000to0850_LatLon0.15_PT186H.grib2 2026-04-30 16:31 488K
20260430T12Z_MSC_GDPS_TotalCloudCover_Sfc_LatLon0.15_PT186H.grib2 2026-04-30 16:31 839K
20260430T12Z_MSC_GDPS_TotalTotalsIndex_Sfc_LatLon0.15_PT186H.grib2 2026-04-30 16:31 6.2M
20260430T12Z_MSC_GDPS_UVIndex-ClearSky_Sfc_LatLon0.15_PT186H.grib2 2026-04-30 16:46 1.1M
20260430T12Z_MSC_GDPS_UVIndex_Sfc_LatLon0.15_PT186H.grib2 2026-04-30 16:46 1.5M
20260430T12Z_MSC_GDPS_UpwardLongwaveRadiationFlux_NTAtm_LatLon0.15_PT186H.grib2 2026-04-30 16:31 838K
20260430T12Z_MSC_GDPS_VerticalVelocity_IsbL-0200_LatLon0.15_PT186H.grib2 2026-04-30 16:31 1.2M
20260430T12Z_MSC_GDPS_VerticalVelocity_IsbL-0250_LatLon0.15_PT186H.grib2 2026-04-30 16:31 1.0M
20260430T12Z_MSC_GDPS_VerticalVelocity_IsbL-0500_LatLon0.15_PT186H.grib2 2026-04-30 16:31 1.2M
20260430T12Z_MSC_GDPS_VerticalVelocity_IsbL-0600_LatLon0.15_PT186H.grib2 2026-04-30 16:31 1.3M
20260430T12Z_MSC_GDPS_VerticalVelocity_IsbL-0700_LatLon0.15_PT186H.grib2 2026-04-30 16:31 1.1M
20260430T12Z_MSC_GDPS_VerticalVelocity_IsbL-0850_LatLon0.15_PT186H.grib2 2026-04-30 16:31 1.3M
20260430T12Z_MSC_GDPS_WindChill_Sfc_LatLon0.15_PT186H.grib2 2026-04-30 16:31 5.3M
20260430T12Z_MSC_GDPS_WindDir_AGL-10m_LatLon0.15_PT186H.grib2 2026-04-30 16:31 1.3M
20260430T12Z_MSC_GDPS_WindDir_AGL-120m_LatLon0.15_PT186H.grib2 2026-04-30 16:31 1.3M
20260430T12Z_MSC_GDPS_WindDir_AGL-40m_LatLon0.15_PT186H.grib2 2026-04-30 16:31 1.4M
20260430T12Z_MSC_GDPS_WindDir_AGL-80m_LatLon0.15_PT186H.grib2 2026-04-30 16:31 1.4M
20260430T12Z_MSC_GDPS_WindDir_IsbL-0001_LatLon0.15_PT186H.grib2 2026-04-30 16:31 662K
20260430T12Z_MSC_GDPS_WindDir_IsbL-0005_LatLon0.15_PT186H.grib2 2026-04-30 16:31 814K
20260430T12Z_MSC_GDPS_WindDir_IsbL-0010_LatLon0.15_PT186H.grib2 2026-04-30 16:31 836K
20260430T12Z_MSC_GDPS_WindDir_IsbL-0020_LatLon0.15_PT186H.grib2 2026-04-30 16:31 929K
20260430T12Z_MSC_GDPS_WindDir_IsbL-0030_LatLon0.15_PT186H.grib2 2026-04-30 16:31 939K
20260430T12Z_MSC_GDPS_WindDir_IsbL-0050_LatLon0.15_PT186H.grib2 2026-04-30 16:31 954K
20260430T12Z_MSC_GDPS_WindDir_IsbL-0100_LatLon0.15_PT186H.grib2 2026-04-30 16:31 1.0M
20260430T12Z_MSC_GDPS_WindDir_IsbL-0150_LatLon0.15_PT186H.grib2 2026-04-30 16:31 1.0M
20260430T12Z_MSC_GDPS_WindDir_IsbL-0175_LatLon0.15_PT186H.grib2 2026-04-30 16:31 1.0M
20260430T12Z_MSC_GDPS_WindDir_IsbL-0200_LatLon0.15_PT186H.grib2 2026-04-30 16:31 1.1M
20260430T12Z_MSC_GDPS_WindDir_IsbL-0225_LatLon0.15_PT186H.grib2 2026-04-30 16:31 1.1M
20260430T12Z_MSC_GDPS_WindDir_IsbL-0250_LatLon0.15_PT186H.grib2 2026-04-30 16:31 1.1M
20260430T12Z_MSC_GDPS_WindDir_IsbL-0275_LatLon0.15_PT186H.grib2 2026-04-30 16:31 1.2M
20260430T12Z_MSC_GDPS_WindDir_IsbL-0300_LatLon0.15_PT186H.grib2 2026-04-30 16:31 1.2M
20260430T12Z_MSC_GDPS_WindDir_IsbL-0350_LatLon0.15_PT186H.grib2 2026-04-30 16:31 1.2M
20260430T12Z_MSC_GDPS_WindDir_IsbL-0400_LatLon0.15_PT186H.grib2 2026-04-30 16:31 1.3M
20260430T12Z_MSC_GDPS_WindDir_IsbL-0450_LatLon0.15_PT186H.grib2 2026-04-30 16:31 1.3M
20260430T12Z_MSC_GDPS_WindDir_IsbL-0500_LatLon0.15_PT186H.grib2 2026-04-30 16:31 1.4M
20260430T12Z_MSC_GDPS_WindDir_IsbL-0550_LatLon0.15_PT186H.grib2 2026-04-30 16:31 1.4M
20260430T12Z_MSC_GDPS_WindDir_IsbL-0600_LatLon0.15_PT186H.grib2 2026-04-30 16:31 1.5M
20260430T12Z_MSC_GDPS_WindDir_IsbL-0650_LatLon0.15_PT186H.grib2 2026-04-30 16:31 1.5M
20260430T12Z_MSC_GDPS_WindDir_IsbL-0700_LatLon0.15_PT186H.grib2 2026-04-30 16:31 1.6M
20260430T12Z_MSC_GDPS_WindDir_IsbL-0750_LatLon0.15_PT186H.grib2 2026-04-30 16:31 1.7M
20260430T12Z_MSC_GDPS_WindDir_IsbL-0800_LatLon0.15_PT186H.grib2 2026-04-30 16:31 1.8M
20260430T12Z_MSC_GDPS_WindDir_IsbL-0850_LatLon0.15_PT186H.grib2 2026-04-30 16:31 1.9M
20260430T12Z_MSC_GDPS_WindDir_IsbL-0875_LatLon0.15_PT186H.grib2 2026-04-30 16:31 1.9M
20260430T12Z_MSC_GDPS_WindDir_IsbL-0900_LatLon0.15_PT186H.grib2 2026-04-30 16:31 2.0M
20260430T12Z_MSC_GDPS_WindDir_IsbL-0925_LatLon0.15_PT186H.grib2 2026-04-30 16:31 2.0M
20260430T12Z_MSC_GDPS_WindDir_IsbL-0950_LatLon0.15_PT186H.grib2 2026-04-30 16:31 2.0M
20260430T12Z_MSC_GDPS_WindDir_IsbL-0970_LatLon0.15_PT186H.grib2 2026-04-30 16:31 2.0M
20260430T12Z_MSC_GDPS_WindDir_IsbL-0985_LatLon0.15_PT186H.grib2 2026-04-30 16:31 2.0M
20260430T12Z_MSC_GDPS_WindDir_IsbL-1000_LatLon0.15_PT186H.grib2 2026-04-30 16:31 2.1M
20260430T12Z_MSC_GDPS_WindDir_IsbL-1015_LatLon0.15_PT186H.grib2 2026-04-30 16:31 2.0M
20260430T12Z_MSC_GDPS_WindGust-Max_AGL-10m_LatLon0.15_PT186H.grib2 2026-04-30 16:31 2.2M
20260430T12Z_MSC_GDPS_WindGust-Min_AGL-10m_LatLon0.15_PT186H.grib2 2026-04-30 16:31 2.2M
20260430T12Z_MSC_GDPS_WindGust_AGL-10m_LatLon0.15_PT186H.grib2 2026-04-30 16:31 2.2M
20260430T12Z_MSC_GDPS_WindSpeed_AGL-10m_LatLon0.15_PT186H.grib2 2026-04-30 16:31 1.1M
20260430T12Z_MSC_GDPS_WindSpeed_AGL-120m_LatLon0.15_PT186H.grib2 2026-04-30 16:31 1.2M
20260430T12Z_MSC_GDPS_WindSpeed_AGL-40m_LatLon0.15_PT186H.grib2 2026-04-30 16:31 1.2M
20260430T12Z_MSC_GDPS_WindSpeed_AGL-80m_LatLon0.15_PT186H.grib2 2026-04-30 16:31 1.2M
20260430T12Z_MSC_GDPS_WindSpeed_IsbL-0001_LatLon0.15_PT186H.grib2 2026-04-30 16:31 652K
20260430T12Z_MSC_GDPS_WindSpeed_IsbL-0005_LatLon0.15_PT186H.grib2 2026-04-30 16:31 693K
20260430T12Z_MSC_GDPS_WindSpeed_IsbL-0010_LatLon0.15_PT186H.grib2 2026-04-30 16:31 625K
20260430T12Z_MSC_GDPS_WindSpeed_IsbL-0020_LatLon0.15_PT186H.grib2 2026-04-30 16:31 659K
20260430T12Z_MSC_GDPS_WindSpeed_IsbL-0030_LatLon0.15_PT186H.grib2 2026-04-30 16:31 855K
20260430T12Z_MSC_GDPS_WindSpeed_IsbL-0050_LatLon0.15_PT186H.grib2 2026-04-30 16:31 890K
20260430T12Z_MSC_GDPS_WindSpeed_IsbL-0100_LatLon0.15_PT186H.grib2 2026-04-30 16:31 1.1M
20260430T12Z_MSC_GDPS_WindSpeed_IsbL-0150_LatLon0.15_PT186H.grib2 2026-04-30 16:31 1.0M
20260430T12Z_MSC_GDPS_WindSpeed_IsbL-0175_LatLon0.15_PT186H.grib2 2026-04-30 16:31 1.0M
20260430T12Z_MSC_GDPS_WindSpeed_IsbL-0200_LatLon0.15_PT186H.grib2 2026-04-30 16:31 1.0M
20260430T12Z_MSC_GDPS_WindSpeed_IsbL-0225_LatLon0.15_PT186H.grib2 2026-04-30 16:31 1.1M
20260430T12Z_MSC_GDPS_WindSpeed_IsbL-0250_LatLon0.15_PT186H.grib2 2026-04-30 16:31 1.1M
20260430T12Z_MSC_GDPS_WindSpeed_IsbL-0275_LatLon0.15_PT186H.grib2 2026-04-30 16:31 1.1M
20260430T12Z_MSC_GDPS_WindSpeed_IsbL-0300_LatLon0.15_PT186H.grib2 2026-04-30 16:31 1.1M
20260430T12Z_MSC_GDPS_WindSpeed_IsbL-0350_LatLon0.15_PT186H.grib2 2026-04-30 16:31 1.1M
20260430T12Z_MSC_GDPS_WindSpeed_IsbL-0400_LatLon0.15_PT186H.grib2 2026-04-30 16:31 1.1M
20260430T12Z_MSC_GDPS_WindSpeed_IsbL-0450_LatLon0.15_PT186H.grib2 2026-04-30 16:31 1.1M
20260430T12Z_MSC_GDPS_WindSpeed_IsbL-0500_LatLon0.15_PT186H.grib2 2026-04-30 16:31 1.1M
20260430T12Z_MSC_GDPS_WindSpeed_IsbL-0550_LatLon0.15_PT186H.grib2 2026-04-30 16:31 1.1M
20260430T12Z_MSC_GDPS_WindSpeed_IsbL-0600_LatLon0.15_PT186H.grib2 2026-04-30 16:31 1.1M
20260430T12Z_MSC_GDPS_WindSpeed_IsbL-0650_LatLon0.15_PT186H.grib2 2026-04-30 16:31 1.2M
20260430T12Z_MSC_GDPS_WindSpeed_IsbL-0700_LatLon0.15_PT186H.grib2 2026-04-30 16:31 1.5M
20260430T12Z_MSC_GDPS_WindSpeed_IsbL-0750_LatLon0.15_PT186H.grib2 2026-04-30 16:31 1.6M
20260430T12Z_MSC_GDPS_WindSpeed_IsbL-0800_LatLon0.15_PT186H.grib2 2026-04-30 16:31 1.6M
20260430T12Z_MSC_GDPS_WindSpeed_IsbL-0850_LatLon0.15_PT186H.grib2 2026-04-30 16:31 1.7M
20260430T12Z_MSC_GDPS_WindSpeed_IsbL-0875_LatLon0.15_PT186H.grib2 2026-04-30 16:31 1.8M
20260430T12Z_MSC_GDPS_WindSpeed_IsbL-0900_LatLon0.15_PT186H.grib2 2026-04-30 16:31 1.9M
20260430T12Z_MSC_GDPS_WindSpeed_IsbL-0925_LatLon0.15_PT186H.grib2 2026-04-30 16:31 1.9M
20260430T12Z_MSC_GDPS_WindSpeed_IsbL-0950_LatLon0.15_PT186H.grib2 2026-04-30 16:31 1.9M
20260430T12Z_MSC_GDPS_WindSpeed_IsbL-0970_LatLon0.15_PT186H.grib2 2026-04-30 16:31 1.9M
20260430T12Z_MSC_GDPS_WindSpeed_IsbL-0985_LatLon0.15_PT186H.grib2 2026-04-30 16:31 1.8M
20260430T12Z_MSC_GDPS_WindSpeed_IsbL-1000_LatLon0.15_PT186H.grib2 2026-04-30 16:31 1.8M
20260430T12Z_MSC_GDPS_WindSpeed_IsbL-1015_LatLon0.15_PT186H.grib2 2026-04-30 16:31 1.8M
20260430T12Z_MSC_GDPS_WindU_AGL-10m_LatLon0.15_PT186H.grib2 2026-04-30 16:31 1.3M
20260430T12Z_MSC_GDPS_WindU_AGL-120m_LatLon0.15_PT186H.grib2 2026-04-30 16:31 964K
20260430T12Z_MSC_GDPS_WindU_AGL-40m_LatLon0.15_PT186H.grib2 2026-04-30 16:31 959K
20260430T12Z_MSC_GDPS_WindU_AGL-80m_LatLon0.15_PT186H.grib2 2026-04-30 16:31 964K
20260430T12Z_MSC_GDPS_WindU_IsbL-0001_LatLon0.15_PT186H.grib2 2026-04-30 16:31 505K
20260430T12Z_MSC_GDPS_WindU_IsbL-0005_LatLon0.15_PT186H.grib2 2026-04-30 16:31 693K
20260430T12Z_MSC_GDPS_WindU_IsbL-0010_LatLon0.15_PT186H.grib2 2026-04-30 16:31 700K
20260430T12Z_MSC_GDPS_WindU_IsbL-0020_LatLon0.15_PT186H.grib2 2026-04-30 16:31 727K
20260430T12Z_MSC_GDPS_WindU_IsbL-0030_LatLon0.15_PT186H.grib2 2026-04-30 16:31 732K
20260430T12Z_MSC_GDPS_WindU_IsbL-0050_LatLon0.15_PT186H.grib2 2026-04-30 16:31 755K
20260430T12Z_MSC_GDPS_WindU_IsbL-0100_LatLon0.15_PT186H.grib2 2026-04-30 16:31 854K
20260430T12Z_MSC_GDPS_WindU_IsbL-0150_LatLon0.15_PT186H.grib2 2026-04-30 16:31 1.0M
20260430T12Z_MSC_GDPS_WindU_IsbL-0175_LatLon0.15_PT186H.grib2 2026-04-30 16:31 805K
20260430T12Z_MSC_GDPS_WindU_IsbL-0200_LatLon0.15_PT186H.grib2 2026-04-30 16:31 835K
20260430T12Z_MSC_GDPS_WindU_IsbL-0225_LatLon0.15_PT186H.grib2 2026-04-30 16:31 846K
20260430T12Z_MSC_GDPS_WindU_IsbL-0250_LatLon0.15_PT186H.grib2 2026-04-30 16:31 851K
20260430T12Z_MSC_GDPS_WindU_IsbL-0275_LatLon0.15_PT186H.grib2 2026-04-30 16:31 880K
20260430T12Z_MSC_GDPS_WindU_IsbL-0300_LatLon0.15_PT186H.grib2 2026-04-30 16:31 872K
20260430T12Z_MSC_GDPS_WindU_IsbL-0350_LatLon0.15_PT186H.grib2 2026-04-30 16:31 888K
20260430T12Z_MSC_GDPS_WindU_IsbL-0400_LatLon0.15_PT186H.grib2 2026-04-30 16:31 892K
20260430T12Z_MSC_GDPS_WindU_IsbL-0450_LatLon0.15_PT186H.grib2 2026-04-30 16:31 1.1M
20260430T12Z_MSC_GDPS_WindU_IsbL-0500_LatLon0.15_PT186H.grib2 2026-04-30 16:31 1.1M
20260430T12Z_MSC_GDPS_WindU_IsbL-0550_LatLon0.15_PT186H.grib2 2026-04-30 16:31 1.1M
20260430T12Z_MSC_GDPS_WindU_IsbL-0600_LatLon0.15_PT186H.grib2 2026-04-30 16:31 1.1M
20260430T12Z_MSC_GDPS_WindU_IsbL-0650_LatLon0.15_PT186H.grib2 2026-04-30 16:31 1.2M
20260430T12Z_MSC_GDPS_WindU_IsbL-0700_LatLon0.15_PT186H.grib2 2026-04-30 16:31 1.2M
20260430T12Z_MSC_GDPS_WindU_IsbL-0750_LatLon0.15_PT186H.grib2 2026-04-30 16:31 1.3M
20260430T12Z_MSC_GDPS_WindU_IsbL-0800_LatLon0.15_PT186H.grib2 2026-04-30 16:31 1.3M
20260430T12Z_MSC_GDPS_WindU_IsbL-0850_LatLon0.15_PT186H.grib2 2026-04-30 16:31 1.4M
20260430T12Z_MSC_GDPS_WindU_IsbL-0875_LatLon0.15_PT186H.grib2 2026-04-30 16:31 1.4M
20260430T12Z_MSC_GDPS_WindU_IsbL-0900_LatLon0.15_PT186H.grib2 2026-04-30 16:31 1.5M
20260430T12Z_MSC_GDPS_WindU_IsbL-0925_LatLon0.15_PT186H.grib2 2026-04-30 16:31 1.5M
20260430T12Z_MSC_GDPS_WindU_IsbL-0950_LatLon0.15_PT186H.grib2 2026-04-30 16:31 1.4M
20260430T12Z_MSC_GDPS_WindU_IsbL-0970_LatLon0.15_PT186H.grib2 2026-04-30 16:31 1.4M
20260430T12Z_MSC_GDPS_WindU_IsbL-0985_LatLon0.15_PT186H.grib2 2026-04-30 16:31 1.4M
20260430T12Z_MSC_GDPS_WindU_IsbL-1000_LatLon0.15_PT186H.grib2 2026-04-30 16:31 1.4M
20260430T12Z_MSC_GDPS_WindU_IsbL-1015_LatLon0.15_PT186H.grib2 2026-04-30 16:31 1.3M
20260430T12Z_MSC_GDPS_WindV_AGL-10m_LatLon0.15_PT186H.grib2 2026-04-30 16:31 1.3M
20260430T12Z_MSC_GDPS_WindV_AGL-120m_LatLon0.15_PT186H.grib2 2026-04-30 16:31 964K
20260430T12Z_MSC_GDPS_WindV_AGL-40m_LatLon0.15_PT186H.grib2 2026-04-30 16:31 959K
20260430T12Z_MSC_GDPS_WindV_AGL-80m_LatLon0.15_PT186H.grib2 2026-04-30 16:31 964K
20260430T12Z_MSC_GDPS_WindV_IsbL-0001_LatLon0.15_PT186H.grib2 2026-04-30 16:31 563K
20260430T12Z_MSC_GDPS_WindV_IsbL-0005_LatLon0.15_PT186H.grib2 2026-04-30 16:31 860K
20260430T12Z_MSC_GDPS_WindV_IsbL-0010_LatLon0.15_PT186H.grib2 2026-04-30 16:31 792K
20260430T12Z_MSC_GDPS_WindV_IsbL-0020_LatLon0.15_PT186H.grib2 2026-04-30 16:31 843K
20260430T12Z_MSC_GDPS_WindV_IsbL-0030_LatLon0.15_PT186H.grib2 2026-04-30 16:31 847K
20260430T12Z_MSC_GDPS_WindV_IsbL-0050_LatLon0.15_PT186H.grib2 2026-04-30 16:31 970K
20260430T12Z_MSC_GDPS_WindV_IsbL-0100_LatLon0.15_PT186H.grib2 2026-04-30 16:31 1.0M
20260430T12Z_MSC_GDPS_WindV_IsbL-0150_LatLon0.15_PT186H.grib2 2026-04-30 16:31 1.0M
20260430T12Z_MSC_GDPS_WindV_IsbL-0175_LatLon0.15_PT186H.grib2 2026-04-30 16:31 1.0M
20260430T12Z_MSC_GDPS_WindV_IsbL-0200_LatLon0.15_PT186H.grib2 2026-04-30 16:31 831K
20260430T12Z_MSC_GDPS_WindV_IsbL-0225_LatLon0.15_PT186H.grib2 2026-04-30 16:31 840K
20260430T12Z_MSC_GDPS_WindV_IsbL-0250_LatLon0.15_PT186H.grib2 2026-04-30 16:31 843K
20260430T12Z_MSC_GDPS_WindV_IsbL-0275_LatLon0.15_PT186H.grib2 2026-04-30 16:31 874K
20260430T12Z_MSC_GDPS_WindV_IsbL-0300_LatLon0.15_PT186H.grib2 2026-04-30 16:31 863K
20260430T12Z_MSC_GDPS_WindV_IsbL-0350_LatLon0.15_PT186H.grib2 2026-04-30 16:31 877K
20260430T12Z_MSC_GDPS_WindV_IsbL-0400_LatLon0.15_PT186H.grib2 2026-04-30 16:31 1.1M
20260430T12Z_MSC_GDPS_WindV_IsbL-0450_LatLon0.15_PT186H.grib2 2026-04-30 16:31 1.1M
20260430T12Z_MSC_GDPS_WindV_IsbL-0500_LatLon0.15_PT186H.grib2 2026-04-30 16:31 1.1M
20260430T12Z_MSC_GDPS_WindV_IsbL-0550_LatLon0.15_PT186H.grib2 2026-04-30 16:31 1.1M
20260430T12Z_MSC_GDPS_WindV_IsbL-0600_LatLon0.15_PT186H.grib2 2026-04-30 16:31 1.1M
20260430T12Z_MSC_GDPS_WindV_IsbL-0650_LatLon0.15_PT186H.grib2 2026-04-30 16:31 1.2M
20260430T12Z_MSC_GDPS_WindV_IsbL-0700_LatLon0.15_PT186H.grib2 2026-04-30 16:31 1.2M
20260430T12Z_MSC_GDPS_WindV_IsbL-0750_LatLon0.15_PT186H.grib2 2026-04-30 16:31 1.3M
20260430T12Z_MSC_GDPS_WindV_IsbL-0800_LatLon0.15_PT186H.grib2 2026-04-30 16:31 1.3M
20260430T12Z_MSC_GDPS_WindV_IsbL-0850_LatLon0.15_PT186H.grib2 2026-04-30 16:31 1.4M
20260430T12Z_MSC_GDPS_WindV_IsbL-0875_LatLon0.15_PT186H.grib2 2026-04-30 16:31 1.4M
20260430T12Z_MSC_GDPS_WindV_IsbL-0900_LatLon0.15_PT186H.grib2 2026-04-30 16:31 1.4M
20260430T12Z_MSC_GDPS_WindV_IsbL-0925_LatLon0.15_PT186H.grib2 2026-04-30 16:31 1.4M
20260430T12Z_MSC_GDPS_WindV_IsbL-0950_LatLon0.15_PT186H.grib2 2026-04-30 16:31 1.4M
20260430T12Z_MSC_GDPS_WindV_IsbL-0970_LatLon0.15_PT186H.grib2 2026-04-30 16:31 1.4M
20260430T12Z_MSC_GDPS_WindV_IsbL-0985_LatLon0.15_PT186H.grib2 2026-04-30 16:31 1.4M
20260430T12Z_MSC_GDPS_WindV_IsbL-1000_LatLon0.15_PT186H.grib2 2026-04-30 16:31 1.4M
20260430T12Z_MSC_GDPS_WindV_IsbL-1015_LatLon0.15_PT186H.grib2 2026-04-30 16:31 1.3M